Weather History for KP53 - August, 2013

Change the Weather History Date:

Friday, August 30, 2013

  Actual Average (KMQT) Record (KMQT)
Temperature  
Mean Temperature 70 °F 62 °F  
Max Temperature 75 °F 72 °F 91 °F (1969)
Min Temperature 66 °F 51 °F 31 °F (1976)
Degree Days  
Heating Degree Days 0 5  
Month to date heating degree days 101  
Since 1 June heating degree days 362  
Since 1 July heating degree days 180  
Cooling Degree Days 6 2  
Month to date cooling degree days 64  
Year to date cooling degree days 218  
Since 1 June cooling degree days 206  
Growing Degree Days 20 (Base 50)    
Moisture  
Dew Point 64 °F    
Average Humidity 82    
Maximum Humidity 90    
Minimum Humidity 68    
Precipitation  
Precipitation 0.35 in 0.10 in 2.22 in (1973)
Month to date precipitation 2.94  
Year to date precipitation 22.26  
Snow  
Snow 0.00 in 0.00 in - ()
Month to date snowfall 0.0  
Since 1 June snowfall 0.0  
Since 1 July snowfall 0.0  
Snow Depth -    
Sea Level Pressure  
Sea Level Pressure 29.82 in    
Wind  
Wind Speed 10 mph (NNW)    
Max Wind Speed 17 mph    
Max Gust Speed 21 mph    
T = Trace of Precipitation, MM = Missing Value Source: NWS Daily Summary

Daily Weather History Graph

Daily Weather History Graph

Search for Another Location

Airport or City:

Trip Planner

Search our weather history database for the weather conditions in past years. The results will help you decide how hot, cold, wet, or windy it might be!

Date:

Astronomy

Aug. 30, 2013 Rise Set
Actual Time 7:04 AM EDT 8:28 PM EDT
Civil Twilight 6:33 AM EDT 8:59 PM EDT
Nautical Twilight 5:55 AM EDT 9:37 PM EDT
Astronomical Twilight 5:14 AM EDT 10:18 PM EDT
Moon 1:32 AM EDT (8/30) 4:54 PM EDT (8/30)
Length of Visible Light 14h 26m
Length of Day
13h 24m
Waning Crescent, 29% of the Moon is Illuminated
Aug 30
Waning Crescent
Sep 5
New
Sep 12
First Quarter
Sep 19
Full
Sep 26
Last Quarter

Hourly Weather History & Observations

Time (EDT) Temp. Dew Point Humidity Pressure Visibility Wind Dir Wind Speed Gust Speed Precip Events Conditions
12:56 AM 75.0 °F 66.0 °F 73% 29.84 in - South 8.1 mph 17.3 mph N/A   Unknown
1:56 AM 73.9 °F 66.9 °F 79% 29.82 in - SSW 11.5 mph - 0.01 in   Unknown
2:56 AM 72.0 °F 66.0 °F 81% 29.81 in - South 10.4 mph - 0.02 in   Unknown
3:56 AM 72.0 °F 64.0 °F 76% 29.78 in - SSW 9.2 mph 20.7 mph N/A   Unknown
4:56 AM 73.0 °F 62.1 °F 68% 29.77 in - SSW 8.1 mph - N/A   Unknown
5:56 AM 71.1 °F 63.0 °F 75% 29.74 in - SSW 10.4 mph 18.4 mph 0.01 in   Unknown
6:56 AM 69.1 °F 64.9 °F 87% 29.73 in - South 5.8 mph - 0.25 in   Unknown
7:56 AM 70.0 °F 66.0 °F 87% 29.75 in - Variable 3.5 mph - 0.05 in   Unknown
8:56 AM 69.1 °F 66.0 °F 90% 29.76 in - Calm Calm - 0.01 in   Unknown
9:56 AM 70.0 °F 66.0 °F 87% 29.75 in - NW 8.1 mph 18.4 mph N/A   Unknown
10:56 AM 66.9 °F 64.0 °F 90% 29.77 in - WNW 11.5 mph 16.1 mph N/A   Unknown
11:56 AM 66.9 °F 64.0 °F 90% 29.78 in - NW 13.8 mph - N/A   Unknown
12:56 PM 66.9 °F 64.0 °F 90% 29.80 in - NW 17.3 mph - N/A   Unknown
1:56 PM 68.0 °F 64.0 °F 87% 29.82 in - North 16.1 mph - N/A   Unknown
2:56 PM 68.0 °F 63.0 °F 84% 29.84 in - North 16.1 mph - N/A   Unknown
3:56 PM 68.0 °F 63.0 °F 84% 29.85 in - NW 13.8 mph - N/A   Unknown
4:56 PM 71.1 °F 63.0 °F 75% 29.86 in - North 16.1 mph - N/A   Unknown
5:56 PM 71.1 °F 62.1 °F 73% 29.86 in - North 12.7 mph - N/A   Unknown
6:56 PM 70.0 °F 62.1 °F 76% 29.88 in - NNE 9.2 mph - N/A   Unknown
7:56 PM 68.0 °F 62.1 °F 81% 29.89 in - NNE 6.9 mph - N/A   Unknown
8:56 PM 66.0 °F 62.1 °F 87% 29.90 in - NNE 9.2 mph - N/A   Unknown
9:56 PM 66.0 °F 62.1 °F 87% 29.92 in - North 9.2 mph - N/A   Unknown
10:56 PM 66.0 °F 62.1 °F 87% 29.91 in - North 5.8 mph - N/A   Unknown
11:56 PM 66.0 °F 61.0 °F 84% 29.91 in - NNE 5.8 mph - N/A   Unknown